Regional Weather Roundup
Issued by NWS Northern Indiana

Current Version | Previous Version | Text Only | Print | Product List | Glossary On
Versions: 1 2 3 4 5 6 7 8 9 10 11 12 13 14 15 16 17 18 19 20 21 22 23 24 25 26 27 28 29 30 31 32 33 34 35 36 37 38 39 40 41 42 43 44 45 46 47 48 49 50
000
ASUS43 KIWX 231300
RWRIWX

KIWX WEATHER ROUNDUP
NATIONAL WEATHER SERVICE NORTHERN INDIANA
800 AM EST MON JAN 23 2017

NOTE: "FAIR" INDICATES FEW OR NO CLOUDS BELOW 12,000 FEET WITH NO
SIGNIFICANT WEATHER AND/OR OBSTRUCTIONS TO VISIBILITY.

* THESE STATIONS ARE NOT UNDER NWS QUALITY CONTROL. THEY ALSO MAY NOT
  REPORT WEATHER SUCH AS PRECIPITATION OR FOG.

INZ001>027-231400-
NORTHERN INDIANA

CITY           SKY/WX    TMP DP  RH WIND       PRES   REMARKS
GARY*          CLOUDY    39  36  87 NW16      29.74R
KNOX*          CLOUDY    37  32  81 N16       29.68R
SOUTH BEND     CLOUDY    38  38 100 N13       29.68R FOG
ELKHART*       FOG       39  39 100 N12       29.68R VSB 1
GOSHEN         CLOUDY    42  39  89 N10       29.66R FOG
FORT WAYNE     CLOUDY    44  42  93 N14       29.62R FOG

$$
INZ028>050-231400-
CENTRAL INDIANA

CITY           SKY/WX    TMP DP  RH WIND       PRES   REMARKS
LAFAYETTE      CLOUDY    39  38  96 N16       29.67R
KOKOMO*        LGT RAIN  42  42 100 N15       29.64R FOG
MUNCIE*        CLOUDY    47  45  93 N14       29.59R FOG
INDIANAPOLIS   DRZL/FOG  42  42 100 N12       29.62R VSB 3/4

$$
MIZ043>046-050>051-056>058-064>065-071>073-077>080-231400-
SOUTHWEST LOWER MICHIGAN

CITY           SKY/WX    TMP DP  RH WIND       PRES   REMARKS
BATTLE CREEK   CLOUDY    40  40 100 N8        29.67R FOG
BENTON HARBOR  CLOUDY    38  37  97 NW7       29.70S FOG
COLDWATER*     CLOUDY    41  41 100 N6        29.65R FOG
HILLSDALE*     FOG       41  39  93 N5        29.63R VSB 3/4
HOLLAND        CLOUDY    38  36  92 NW5       29.71R
GRAND RAPIDS   DRIZZLE   40  38  93 N9        29.68R FOG
KALAMAZOO      FOG       41  39  93 N10       29.68R VSB 1
STURGIS*       CLOUDY    40  40 100 N7        29.65R FOG
THREE RIVERS*  CLOUDY    40  40 100 N6        29.67R FOG

$$
OHZ001>008-015>018-024>025-231400-
NORTHWEST OHIO

CITY           SKY/WX    TMP DP  RH WIND       PRES   REMARKS
DEFIANCE       CLOUDY    42  41  96 NE13      29.62R FOG
FINDLAY        LGT RAIN  39  36  89 NE17      29.57R
TOLEDO EXPRESS CLOUDY    41  41 100 NE13      29.62R FOG
TOLEDO METCALF LGT RAIN  38  38 100 NE13G24   29.63R
LIMA           LGT RAIN  38  38 100 N15       29.56R

$$
AND FOR LAKE MICHIGAN COASTAL AND OPEN LAKE BUOY OBSERVATIONS

STATION/POSITION TEMP    WIND        PRES    VSBY  WAVE
                 AIR SEA DIR/SP/G                  HT/PER
                 (F)     (DEG/KT/KT) (MB)    (MI)  (FT/S)
CALUMET HARBOR    36     330/ 13/ 18 1006.5R
MICHIGAN CITY     36     330/ 19/ 21   N/A
BURNS HARBOR      36     350/ 11/ 14 1007.1R
SAINT JOSEPH      37      10/  9/ 13 1006.4

$$
&&



USA.gov is the U.S. government's official web portal to all federal, state and local government web resources and services.